| time (UTC) | temp C | wind direction | speed KPH | gust KPH | rain 1hr cm | rain 24hr cm | rain mn cm | humidity % | barometer mb |
| 20260502225125 | 10 | 32 | 1.6 | 3.2 | 0.00 | 0.00 | 0.00 | 48 | 1015.7 |
| 20260502224621 | 11 | 21 | 4.8 | 9.7 | 0.00 | 0.00 | 0.00 | 45 | 1015.5 |
| 20260502224118 | 11 | 2 | 4.8 | 9.7 | 0.00 | 0.00 | 0.00 | 43 | 1015.4 |
| 20260502223615 | 11 | 314 | 6.4 | 11.3 | 0.00 | 0.00 | 0.00 | 44 | 1015.4 |
| 20260502223114 | 11 | 326 | 6.4 | 9.7 | 0.00 | 0.00 | 0.00 | 43 | 1015.4 |
| 20260502222611 | 12 | 323 | 1.6 | 4.8 | 0.00 | 0.00 | 0.00 | 43 | 1015.3 |
| 20260502222107 | 11 | 3 | 4.8 | 9.7 | 0.00 | 0.00 | 0.00 | 44 | 1015.2 |
| 20260502221603 | 11 | 312 | 4.8 | 6.4 | 0.00 | 0.00 | 0.00 | 45 | 1015.3 |
| 20260502221100 | 11 | 309 | 3.2 | 4.8 | 0.00 | 0.00 | 0.00 | 44 | 1015.1 |
| 20260502220556 | 11 | 313 | 9.7 | 14.5 | 0.00 | 0.00 | 0.00 | 46 | 1015.2 |
| 20260502220053 | 11 | 346 | 1.6 | 6.4 | 0.00 | 0.00 | 0.00 | 43 | 1015.2 |
| 20260502215550 | 11 | 316 | 9.7 | 12.9 | 0.00 | 0.00 | 0.00 | 45 | 1014.9 |
| 20260502215047 | 11 | 313 | 8.0 | 16.1 | 0.00 | 0.00 | 0.00 | 45 | 1014.8 |
| 20260502214544 | 11 | 314 | 9.7 | 12.9 | 0.00 | 0.00 | 0.00 | 42 | 1014.9 |
| 20260502214041 | 11 | 315 | 6.4 | 11.3 | 0.00 | 0.00 | 0.00 | 45 | 1014.6 |
| 20260502213538 | 11 | 307 | 3.2 | 6.4 | 0.00 | 0.00 | 0.00 | 43 | 1014.8 |
| 20260502213036 | 11 | 311 | 9.7 | 17.7 | 0.00 | 0.00 | 0.00 | 43 | 1014.8 |
| 20260502212534 | 11 | 318 | 8.0 | 20.9 | 0.00 | 0.00 | 0.00 | 42 | 1014.5 |
| 20260502212032 | 12 | 314 | 9.7 | 16.1 | 0.00 | 0.00 | 0.00 | 38 | 1014.8 |
| 20260502211527 | 12 | 312 | 11.3 | 12.9 | 0.00 | 0.00 | 0.00 | 39 | 1014.8 |
| 20260502211025 | 11 | 316 | 6.4 | 9.7 | 0.00 | 0.00 | 0.00 | 42 | 1014.6 |
| 20260502210521 | 11 | 248 | 9.7 | 14.5 | 0.00 | 0.00 | 0.00 | 42 | 1014.6 |
| 20260502210019 | 11 | 297 | 6.4 | 9.7 | 0.00 | 0.00 | 0.00 | 41 | 1014.7 |
| 20260502205515 | 11 | 279 | 8.0 | 20.9 | 0.00 | 0.00 | 0.00 | 41 | 1014.7 |
| 20260502205012 | 11 | 254 | 3.2 | 4.8 | 0.00 | 0.00 | 0.00 | 40 | 1014.7 |
| 20260502204509 | 11 | 12 | 1.6 | 6.4 | 0.00 | 0.00 | 0.00 | 43 | 1014.7 |
| 20260502204007 | 12 | 314 | 3.2 | 6.4 | 0.00 | 0.00 | 0.00 | 42 | 1014.6 |
| 20260502203503 | 12 | 308 | 1.6 | 3.2 | 0.00 | 0.00 | 0.00 | 39 | 1014.9 |
| 20260502203000 | 12 | 293 | 8.0 | 16.1 | 0.00 | 0.00 | 0.00 | 41 | 1014.5 |
| 20260502202456 | 11 | 318 | 6.4 | 9.7 | 0.00 | 0.00 | 0.00 | 38 | 1014.9 |
| 20260502201955 | 12 | 315 | 9.7 | 12.9 | 0.00 | 0.00 | 0.00 | 38 | 1014.8 |
| 20260502201450 | 12 | 234 | 3.2 | 4.8 | 0.00 | 0.00 | 0.00 | 38 | 1014.6 |
| 20260502200947 | 12 | 318 | 3.2 | 9.7 | 0.00 | 0.00 | 0.00 | 37 | 1014.7 |
| 20260502200443 | 12 | 310 | 9.7 | 12.9 | 0.00 | 0.00 | 0.00 | 43 | 1014.9 |
| 20260502195941 | 12 | 313 | 11.3 | 17.7 | 0.00 | 0.00 | 0.00 | 39 | 1014.9 |
| 20260502195438 | 13 | 301 | 11.3 | 22.5 | 0.00 | 0.00 | 0.00 | 42 | 1014.9 |
| 20260502194934 | 12 | 315 | 4.8 | 20.9 | 0.00 | 0.00 | 0.00 | 40 | 1015.2 |
| 20260502194431 | 12 | 276 | 8.0 | 12.9 | 0.00 | 0.00 | 0.00 | 40 | 1015.1 |
| 20260502193927 | 11 | 302 | 6.4 | 9.7 | 0.00 | 0.00 | 0.00 | 45 | 1015.3 |
| 20260502193424 | 11 | 315 | 9.7 | 12.9 | 0.00 | 0.00 | 0.00 | 41 | 1015.5 |
| 20260502192920 | 11 | 312 | 8.0 | 12.9 | 0.00 | 0.00 | 0.00 | 44 | 1015.2 |
| 20260502192417 | 11 | 306 | 11.3 | 17.7 | 0.00 | 0.00 | 0.00 | 42 | 1015.5 |
| 20260502191914 | 11 | 334 | 1.6 | 4.8 | 0.00 | 0.00 | 0.00 | 44 | 1015.6 |
| 20260502191412 | 12 | 334 | 11.3 | 22.5 | 0.00 | 0.00 | 0.00 | 43 | 1015.3 |
| 20260502190909 | 12 | 241 | 8.0 | 14.5 | 0.00 | 0.00 | 0.00 | 39 | 1015.3 |
| 20260502190406 | 12 | 258 | 3.2 | 6.4 | 0.00 | 0.00 | 0.00 | 43 | 1015.5 |
| 20260502185902 | 11 | 4 | 1.6 | 6.4 | 0.00 | 0.00 | 0.00 | 45 | 1015.7 |
| 20260502185357 | 11 | 1 | 3.2 | 6.4 | 0.00 | 0.00 | 0.00 | 41 | 1015.5 |
| 20260502184855 | 11 | 318 | 3.2 | 12.9 | 0.00 | 0.00 | 0.00 | 44 | 1015.6 |
| 20260502184350 | 12 | 266 | 6.4 | 17.7 | 0.00 | 0.00 | 0.00 | 44 | 1015.4 |
| 20260502183847 | 11 | 317 | 6.4 | 9.7 | 0.00 | 0.00 | 0.00 | 47 | 1015.9 |
| 20260502183343 | 12 | 318 | 6.4 | 12.9 | 0.00 | 0.00 | 0.00 | 44 | 1015.7 |
| 20260502182838 | 12 | 229 | 1.6 | 9.7 | 0.00 | 0.00 | 0.00 | 47 | 1015.7 |
| 20260502182334 | 11 | 307 | 8.0 | 20.9 | 0.00 | 0.00 | 0.00 | 44 | 1015.8 |
| 20260502181831 | 10 | 268 | 9.7 | 17.7 | 0.00 | 0.00 | 0.00 | 46 | 1015.9 |
| 20260502181330 | 11 | 256 | 12.9 | 17.7 | 0.00 | 0.00 | 0.00 | 45 | 1015.9 |
| 20260502180827 | 12 | 313 | 14.5 | 16.1 | 0.00 | 0.00 | 0.00 | 46 | 1015.9 |
| 20260502180324 | 12 | 322 | 9.7 | 17.7 | 0.00 | 0.00 | 0.00 | 48 | 1016.0 |
| 20260502170243 | 10 | 323 | 6.4 | 12.9 | 0.00 | 0.00 | 0.00 | 52 | 1016.1 |
| 20260502164230 | 11 | 316 | 8.0 | 12.9 | 0.00 | 0.00 | 0.00 | 42 | 1016.2 |
| 20260502163726 | 11 | 271 | 9.7 | 27.4 | 0.00 | 0.00 | 0.00 | 44 | 1016.2 |
| 20260502163223 | 11 | 311 | 8.0 | 16.1 | 0.00 | 0.00 | 0.00 | 50 | 1016.2 |
| 20260502162720 | 11 | 300 | 6.4 | 14.5 | 0.00 | 0.00 | 0.00 | 43 | 1016.4 |
| 20260502162216 | 10 | 312 | 6.4 | 11.3 | 0.00 | 0.00 | 0.00 | 42 | 1016.6 |
| 20260502161713 | 10 | 320 | 6.4 | 20.9 | 0.00 | 0.00 | 0.00 | 47 | 1016.6 |
| 20260502161210 | 10 | 319 | 3.2 | 14.5 | 0.00 | 0.00 | 0.00 | 48 | 1016.6 |
| 20260502160708 | 10 | 311 | 9.7 | 11.3 | 0.00 | 0.00 | 0.00 | 46 | 1016.6 |
| 20260502160207 | 10 | 309 | 6.4 | 16.1 | 0.00 | 0.00 | 0.00 | 47 | 1016.6 |
| 20260502152126 | 9 | 314 | 6.4 | 11.3 | 0.00 | 0.00 | 0.00 | 49 | 1016.7 |
| 20260502151623 | 10 | 5 | 4.8 | 6.4 | 0.00 | 0.00 | 0.00 | 52 | 1016.7 |
| 20260502151120 | 9 | 321 | 3.2 | 14.5 | 0.00 | 0.00 | 0.00 | 51 | 1017.0 |
| 20260502150618 | 9 | 275 | 9.7 | 16.1 | 0.00 | 0.00 | 0.00 | 55 | 1016.7 |
| 20260502150114 | 9 | 296 | 1.6 | 4.8 | 0.00 | 0.00 | 0.00 | 56 | 1016.9 |
| 20260502130503 | 6 | 351 | 0.0 | 0.0 | 0.00 | 0.00 | 0.00 | 86 | 1017.0 |
| 20260502123445 | 4 | 303 | 0.0 | 0.0 | 0.00 | 0.00 | 0.00 | 97 | 1016.9 |
| 20260502122943 | 3 | 303 | 0.0 | 0.0 | 0.00 | 0.00 | 0.00 | 98 | 1017.1 |
| 20260502122438 | 3 | 302 | 0.0 | 0.0 | 0.00 | 0.00 | 0.00 | 98 | 1017.1 |
| 20260502121937 | 2 | 303 | 0.0 | 0.0 | 0.00 | 0.00 | 0.00 | 99 | 1017.1 |
| 20260502121433 | 2 | 302 | 0.0 | 0.0 | 0.00 | 0.00 | 0.00 | 99 | 1017.3 |
| 20260502120931 | 2 | 304 | 0.0 | 0.0 | 0.00 | 0.00 | 0.00 | 99 | 1017.2 |
| 20260502120427 | 2 | 304 | 0.0 | 0.0 | 0.00 | 0.00 | 0.00 | 99 | 1017.3 |
| 20260502115925 | 1 | 304 | 0.0 | 0.0 | 0.00 | 0.00 | 0.00 | 99 | 1017.3 |
| 20260502115422 | 1 | 304 | 0.0 | 0.0 | 0.00 | 0.00 | 0.00 | 99 | 1017.3 |
| 20260502114918 | 1 | 305 | 0.0 | 0.0 | 0.00 | 0.00 | 0.00 | 99 | 1017.1 |
| 20260502114415 | 1 | 305 | 0.0 | 0.0 | 0.00 | 0.00 | 0.00 | 99 | 1017.0 |
| 20260502113912 | 1 | 304 | 0.0 | 0.0 | 0.00 | 0.00 | 0.00 | 99 | 1017.1 |
| 20260502113410 | 1 | 304 | 0.0 | 0.0 | 0.00 | 0.00 | 0.00 | 99 | 1017.1 |
| 20260502112908 | 0 | 304 | 0.0 | 0.0 | 0.00 | 0.00 | 0.00 | 99 | 1017.1 |
| 20260502112405 | 0 | 304 | 0.0 | 0.0 | 0.00 | 0.00 | 0.00 | 99 | 1017.0 |
| 20260502111902 | 0 | 304 | 0.0 | 0.0 | 0.00 | 0.00 | 0.00 | 99 | 1017.0 |
| 20260502111359 | 0 | 304 | 0.0 | 0.0 | 0.00 | 0.00 | 0.00 | 99 | 1016.9 |
| 20260502110857 | 0 | 304 | 0.0 | 0.0 | 0.00 | 0.00 | 0.00 | 99 | 1016.9 |
| 20260502110355 | 0 | 304 | 0.0 | 0.0 | 0.00 | 0.00 | 0.00 | 99 | 1016.9 |
| 20260502105852 | 0 | 304 | 0.0 | 0.0 | 0.00 | 0.00 | 0.00 | 99 | 1017.0 |
| 20260502105349 | 0 | 304 | 0.0 | 0.0 | 0.00 | 0.00 | 0.00 | 99 | 1017.2 |
| 20260502104847 | 0 | 304 | 0.0 | 0.0 | 0.00 | 0.00 | 0.00 | 99 | 1017.2 |
| 20260502104344 | 0 | 304 | 0.0 | 0.0 | 0.00 | 0.00 | 0.00 | 99 | 1017.2 |
| 20260502103840 | 0 | 304 | 0.0 | 0.0 | 0.00 | 0.00 | 0.00 | 99 | 1017.2 |
| 20260502103338 | 0 | 304 | 0.0 | 0.0 | 0.00 | 0.00 | 0.00 | 99 | 1017.1 |
| 20260502102835 | 0 | 304 | 0.0 | 0.0 | 0.00 | 0.00 | 0.00 | 99 | 1017.0 |
| 20260502102331 | 0 | 304 | 0.0 | 0.0 | 0.00 | 0.00 | 0.00 | 99 | 1017.1 |
| 20260502101829 | 0 | 304 | 0.0 | 0.0 | 0.00 | 0.00 | 0.00 | 99 | 1017.1 |
| 20260502101327 | 0 | 304 | 0.0 | 0.0 | 0.00 | 0.00 | 0.00 | 99 | 1017.1 |
| 20260502100826 | 0 | 304 | 0.0 | 0.0 | 0.00 | 0.00 | 0.00 | 99 | 1017.1 |
| 20260502100324 | 0 | 304 | 0.0 | 0.0 | 0.00 | 0.00 | 0.00 | 99 | 1017.1 |
| 20260502091258 | 0 | 304 | 0.0 | 0.0 | 0.00 | 0.00 | 0.00 | 99 | 1017.2 |
| 20260502090755 | 0 | 304 | 0.0 | 0.0 | 0.00 | 0.00 | 0.00 | 99 | 1017.1 |
| 20260502090252 | 0 | 304 | 0.0 | 0.0 | 0.00 | 0.00 | 0.00 | 99 | 1017.2 |
| 20260502071153 | 1 | 305 | 0.0 | 0.0 | 0.00 | 0.00 | 0.00 | 98 | 1016.7 |
| 20260502070651 | 1 | 305 | 0.0 | 0.0 | 0.00 | 0.00 | 0.00 | 98 | 1016.8 |
| 20260502070149 | 1 | 305 | 0.0 | 0.0 | 0.00 | 0.00 | 0.00 | 98 | 1016.7 |
| 20260502065647 | 1 | 305 | 0.0 | 0.0 | 0.00 | 0.00 | 0.00 | 98 | 1016.8 |
| 20260502065144 | 1 | 305 | 0.0 | 0.0 | 0.00 | 0.00 | 0.00 | 98 | 1017.0 |
| 20260502064643 | 1 | 305 | 0.0 | 0.0 | 0.00 | 0.00 | 0.00 | 98 | 1017.1 |
| 20260502064139 | 1 | 305 | 0.0 | 0.0 | 0.00 | 0.00 | 0.00 | 98 | 1017.0 |
| 20260502063637 | 1 | 305 | 0.0 | 0.0 | 0.00 | 0.00 | 0.00 | 98 | 1017.1 |
| 20260502063135 | 1 | 305 | 0.0 | 0.0 | 0.00 | 0.00 | 0.00 | 98 | 1017.1 |
| 20260502062632 | 1 | 305 | 0.0 | 0.0 | 0.00 | 0.00 | 0.00 | 98 | 1017.1 |
| 20260502062129 | 1 | 305 | 0.0 | 0.0 | 0.00 | 0.00 | 0.00 | 98 | 1017.0 |
| 20260502061628 | 1 | 305 | 0.0 | 0.0 | 0.00 | 0.00 | 0.00 | 98 | 1017.3 |
| 20260502061125 | 1 | 305 | 0.0 | 0.0 | 0.00 | 0.00 | 0.00 | 98 | 1017.3 |
| 20260502060624 | 1 | 306 | 0.0 | 0.0 | 0.00 | 0.00 | 0.00 | 98 | 1017.3 |
| 20260502060121 | 1 | 306 | 0.0 | 0.0 | 0.00 | 0.00 | 0.00 | 97 | 1017.3 |
| 20260502055619 | 1 | 306 | 0.0 | 0.0 | 0.00 | 0.00 | 0.00 | 97 | 1017.4 |
| 20260502055117 | 1 | 306 | 0.0 | 0.0 | 0.00 | 0.00 | 0.00 | 97 | 1017.5 |
| 20260502054616 | 1 | 306 | 0.0 | 0.0 | 0.00 | 0.00 | 0.00 | 97 | 1017.4 |
| 20260502054113 | 1 | 306 | 0.0 | 0.0 | 0.00 | 0.00 | 0.00 | 97 | 1017.5 |
| 20260502053610 | 1 | 306 | 0.0 | 0.0 | 0.00 | 0.00 | 0.00 | 97 | 1017.5 |
| 20260502053107 | 1 | 305 | 0.0 | 0.0 | 0.00 | 0.00 | 0.00 | 97 | 1017.4 |
| 20260502052606 | 1 | 305 | 0.0 | 0.0 | 0.00 | 0.00 | 0.00 | 97 | 1017.6 |
| 20260502052104 | 1 | 305 | 0.0 | 0.0 | 0.00 | 0.00 | 0.00 | 97 | 1017.6 |
| 20260502051601 | 1 | 306 | 0.0 | 0.0 | 0.00 | 0.00 | 0.00 | 97 | 1017.3 |
| 20260502051059 | 1 | 306 | 0.0 | 0.0 | 0.00 | 0.00 | 0.00 | 97 | 1017.7 |
| 20260502050555 | 1 | 306 | 0.0 | 0.0 | 0.00 | 0.00 | 0.00 | 97 | 1017.6 |
| 20260502050052 | 2 | 305 | 0.0 | 0.0 | 0.00 | 0.00 | 0.00 | 97 | 1017.7 |
| 20260502045548 | 2 | 305 | 0.0 | 0.0 | 0.00 | 0.00 | 0.00 | 97 | 1017.7 |
| 20260502045046 | 2 | 306 | 0.0 | 0.0 | 0.00 | 0.00 | 0.00 | 97 | 1017.7 |
| 20260502044542 | 2 | 305 | 0.0 | 0.0 | 0.00 | 0.00 | 0.00 | 96 | 1017.7 |
| 20260502044039 | 2 | 305 | 0.0 | 0.0 | 0.00 | 0.00 | 0.00 | 96 | 1017.8 |
| 20260502043537 | 2 | 305 | 0.0 | 0.0 | 0.00 | 0.00 | 0.00 | 96 | 1017.6 |
| 20260502043032 | 2 | 305 | 0.0 | 0.0 | 0.00 | 0.00 | 0.00 | 96 | 1017.5 |
| 20260502042527 | 2 | 305 | 0.0 | 0.0 | 0.00 | 0.00 | 0.00 | 96 | 1017.5 |
| 20260502042025 | 2 | 306 | 0.0 | 0.0 | 0.00 | 0.00 | 0.00 | 96 | 1017.5 |
| 20260502041523 | 2 | 311 | 0.0 | 0.0 | 0.00 | 0.00 | 0.00 | 95 | 1017.5 |
| 20260502041020 | 2 | 311 | 0.0 | 0.0 | 0.00 | 0.00 | 0.00 | 95 | 1017.5 |
| 20260502040516 | 2 | 311 | 0.0 | 0.0 | 0.00 | 0.00 | 0.00 | 95 | 1017.4 |
| 20260502040014 | 3 | 311 | 0.0 | 0.0 | 0.00 | 0.00 | 0.00 | 95 | 1017.3 |
| 20260502035509 | 3 | 311 | 0.0 | 0.0 | 0.00 | 0.00 | 0.00 | 95 | 1017.3 |
| 20260502035007 | 3 | 311 | 0.0 | 0.0 | 0.00 | 0.00 | 0.00 | 94 | 1017.4 |
| 20260502034505 | 3 | 311 | 0.0 | 0.0 | 0.00 | 0.00 | 0.00 | 94 | 1017.4 |
| 20260502034003 | 3 | 311 | 0.0 | 0.0 | 0.00 | 0.00 | 0.00 | 94 | 1017.2 |
| 20260502033500 | 3 | 311 | 0.0 | 0.0 | 0.00 | 0.00 | 0.00 | 94 | 1017.2 |
| 20260502032957 | 4 | 311 | 0.0 | 0.0 | 0.00 | 0.00 | 0.00 | 93 | 1017.4 |
| 20260502032453 | 4 | 311 | 0.0 | 0.0 | 0.00 | 0.00 | 0.00 | 92 | 1017.3 |
| 20260502031950 | 4 | 311 | 0.0 | 0.0 | 0.00 | 0.00 | 0.00 | 91 | 1017.6 |
| 20260502031449 | 4 | 311 | 0.0 | 0.0 | 0.00 | 0.00 | 0.00 | 90 | 1017.5 |
| 20260502030947 | 5 | 311 | 0.0 | 0.0 | 0.00 | 0.00 | 0.00 | 90 | 1017.4 |
| 20260502030445 | 5 | 311 | 0.0 | 0.0 | 0.00 | 0.00 | 0.00 | 89 | 1017.4 |
| 20260502025942 | 5 | 311 | 0.0 | 0.0 | 0.00 | 0.00 | 0.00 | 89 | 1017.4 |
| 20260502025439 | 5 | 311 | 0.0 | 0.0 | 0.00 | 0.00 | 0.00 | 88 | 1017.5 |
| 20260502024937 | 5 | 311 | 0.0 | 0.0 | 0.00 | 0.00 | 0.00 | 88 | 1017.4 |
| 20260502024435 | 6 | 311 | 1.6 | 1.6 | 0.00 | 0.00 | 0.00 | 86 | 1017.2 |
| 20260502023933 | 6 | 313 | 0.0 | 0.0 | 0.00 | 0.00 | 0.00 | 84 | 1017.2 |
| 20260502023430 | 7 | 313 | 0.0 | 1.6 | 0.00 | 0.00 | 0.00 | 82 | 1017.3 |
| 20260502022927 | 7 | 313 | 0.0 | 0.0 | 0.00 | 0.00 | 0.00 | 78 | 1017.0 |
| 20260502022424 | 7 | 313 | 0.0 | 0.0 | 0.00 | 0.00 | 0.00 | 76 | 1016.9 |
| 20260502021921 | 7 | 314 | 3.2 | 3.2 | 0.00 | 0.00 | 0.00 | 76 | 1017.0 |
| 20260502021418 | 7 | 313 | 0.0 | 0.0 | 0.00 | 0.00 | 0.00 | 75 | 1016.7 |
| 20260502020915 | 7 | 316 | 4.8 | 4.8 | 0.00 | 0.00 | 0.00 | 74 | 1016.7 |
| 20260502020413 | 8 | 314 | 1.6 | 1.6 | 0.00 | 0.00 | 0.00 | 74 | 1016.8 |
| 20260502015909 | 8 | 315 | 0.0 | 6.4 | 0.00 | 0.00 | 0.00 | 73 | 1016.6 |
| 20260502015407 | 8 | 312 | 3.2 | 3.2 | 0.00 | 0.00 | 0.00 | 72 | 1016.6 |
| 20260502014904 | 8 | 311 | 6.4 | 9.7 | 0.00 | 0.00 | 0.00 | 72 | 1016.4 |
| 20260502014400 | 8 | 314 | 9.7 | 17.7 | 0.00 | 0.00 | 0.00 | 72 | 1016.6 |
| 20260502013856 | 8 | 322 | 4.8 | 4.8 | 0.00 | 0.00 | 0.00 | 70 | 1016.5 |
| 20260502013352 | 8 | 323 | 1.6 | 4.8 | 0.00 | 0.00 | 0.00 | 70 | 1016.1 |
| 20260502012849 | 8 | 314 | 0.0 | 4.8 | 0.00 | 0.00 | 0.00 | 70 | 1016.0 |
| 20260502012347 | 8 | 330 | 4.8 | 6.4 | 0.00 | 0.00 | 0.00 | 71 | 1016.1 |
| 20260502011844 | 9 | 314 | 4.8 | 4.8 | 0.00 | 0.00 | 0.00 | 69 | 1015.8 |
| 20260502011340 | 9 | 345 | 1.6 | 4.8 | 0.00 | 0.00 | 0.00 | 70 | 1015.8 |
| 20260502010838 | 9 | 317 | 3.2 | 9.7 | 0.00 | 0.00 | 0.00 | 69 | 1015.5 |
| 20260502010334 | 9 | 320 | 0.0 | 11.3 | 0.00 | 0.00 | 0.00 | 68 | 1015.3 |
| 20260502005831 | 9 | 329 | 11.3 | 14.5 | 0.00 | 0.00 | 0.00 | 69 | 1015.6 |
| 20260502005329 | 9 | 338 | 8.0 | 16.1 | 0.00 | 0.00 | 0.00 | 71 | 1015.7 |
| 20260502004826 | 10 | 320 | 8.0 | 16.1 | 0.00 | 0.00 | 0.00 | 73 | 1015.4 |
| 20260502004322 | 10 | 352 | 3.2 | 17.7 | 0.00 | 0.00 | 0.00 | 75 | 1015.2 |
| 20260502003820 | 10 | 303 | 9.7 | 17.7 | 0.00 | 0.00 | 0.00 | 80 | 1015.2 |
| 20260502003317 | 10 | 303 | 0.0 | 3.2 | 0.00 | 0.00 | 0.00 | 87 | 1014.8 |
| 20260502002813 | 9 | 273 | 0.0 | 0.0 | 0.00 | 0.00 | 0.00 | 83 | 1014.4 |
| 20260502002310 | 10 | 273 | 0.0 | 0.0 | 0.00 | 0.00 | 0.00 | 83 | 1014.3 |
| 20260502001808 | 10 | 273 | 1.6 | 1.6 | 0.00 | 0.00 | 0.00 | 82 | 1014.1 |
| 20260502001305 | 10 | 273 | 0.0 | 0.0 | 0.00 | 0.00 | 0.00 | 82 | 1013.8 |
| 20260502000757 | 10 | 273 | 0.0 | 0.0 | 0.00 | 0.00 | 0.00 | 80 | 1013.7 |
| 20260502000256 | 10 | 273 | 0.0 | 1.6 | 0.00 | 0.00 | 0.00 | 81 | 1013.8 |
| 20260501235756 | 10 | 273 | 0.0 | 1.6 | 0.00 | 0.00 | 0.00 | 82 | 1013.6 |
| 20260501235252 | 10 | 272 | 0.0 | 1.6 | 0.00 | 0.00 | 0.00 | 81 | 1013.6 |
| 20260501234748 | 10 | 273 | 0.0 | 0.0 | 0.00 | 0.00 | 0.00 | 79 | 1013.7 |
| 20260501234245 | 10 | 273 | 0.0 | 1.6 | 0.00 | 0.00 | 0.00 | 79 | 1013.6 |
| 20260501233743 | 10 | 272 | 1.6 | 1.6 | 0.00 | 0.00 | 0.00 | 79 | 1013.6 |
| 20260501233241 | 10 | 269 | 1.6 | 3.2 | 0.00 | 0.00 | 0.00 | 78 | 1013.6 |
| 20260501232736 | 10 | 245 | 1.6 | 3.2 | 0.00 | 0.00 | 0.00 | 79 | 1013.7 |
| 20260501232233 | 10 | 276 | 0.0 | 1.6 | 0.00 | 0.00 | 0.00 | 78 | 1013.5 |
| 20260501231731 | 10 | 276 | 1.6 | 1.6 | 0.00 | 0.00 | 0.00 | 79 | 1013.4 |
| 20260501231229 | 10 | 285 | 1.6 | 3.2 | 0.00 | 0.00 | 0.00 | 79 | 1013.4 |
| 20260501230727 | 10 | 273 | 1.6 | 3.2 | 0.00 | 0.00 | 0.00 | 80 | 1013.5 |
| 20260501230225 | 10 | 269 | 1.6 | 3.2 | 0.00 | 0.00 | 0.00 | 80 | 1013.5 |
| 20260501225722 | 10 | 244 | 1.6 | 1.6 | 0.00 | 0.00 | 0.00 | 79 | 1013.4 |
| 20260501225219 | 10 | 239 | 3.2 | 3.2 | 0.00 | 0.00 | 0.00 | 77 | 1013.4 |